Location: Unnamed
(48.6007°N, 2.4808°E)
Time: 13:53:00
(UTC+02:00)

DX 1 - Visible Passes

Search period start: 02 April 2023 00:00
Search period end: 12 April 2023 00:00
Orbit: 614 x 627 km, 98.4° (Epoch: 02 April)

Date Brightness Start Highest point End Pass type
(mag) Time Alt. Az. Time Alt. Az. Time Alt. Az.
02 Apr ? 01:05:43 10° N 01:07:07 19° NNW 01:07:07 19° NNW visible
02 Apr ? 23:47:01 10° NNE 23:47:43 14° NNE 23:47:43 14° NNE visible
03 Apr ? 01:23:29 10° N 01:24:54 17° NNW 01:24:54 17° NNW visible
04 Apr ? 00:04:21 10° NNE 00:05:30 18° NNE 00:05:30 18° NNE visible
04 Apr ? 01:41:24 10° NNW 01:42:42 15° NNW 01:42:42 15° NNW visible
05 Apr ? 00:21:46 10° NNE 00:23:18 22° NNE 00:23:18 22° NNE visible
05 Apr ? 01:59:36 10° NNW 02:00:29 12° NW 02:00:29 12° NW visible
06 Apr ? 00:39:17 10° N 00:41:04 24° N 00:41:04 24° N visible
06 Apr ? 23:21:18 10° NE 23:21:39 12° NE 23:21:39 12° NE visible
07 Apr ? 00:56:52 10° N 00:58:51 24° NNW 00:58:51 24° NNW visible
07 Apr ? 23:38:23 10° NNE 23:39:25 16° NE 23:39:25 16° NE visible
08 Apr ? 01:14:32 10° N 01:16:36 22° NNW 01:16:36 22° NNW visible
08 Apr ? 23:55:37 10° NNE 23:57:11 21° NE 23:57:11 21° NE visible
09 Apr ? 01:32:19 10° NNW 01:34:22 19° NW 01:34:22 19° NW visible
10 Apr ? 00:12:58 10° NNE 00:14:56 26° NNE 00:14:56 26° NNE visible
10 Apr ? 01:50:18 10° NNW 01:52:08 15° NW 01:52:08 15° NW visible
11 Apr ? 00:30:24 10° NNE 00:32:42 31° N 00:32:42 31° N visible
11 Apr ? 02:08:46 10° NW 02:09:52 11° NW 02:09:52 11° NW visible
11 Apr ? 23:12:46 10° NE 23:13:15 12° NE 23:13:15 12° NE visible
